#timestamp,LO_Frequency,Hit 
1504429215.7,286046998.7,N
1504429235.5,286046998.4,N
1504429255.3,286047004.0,N
1504429275.2,286047002.1,N
1504429295.9,286047002.9,N
1504429315.7,286047005.3,N
1504429335.6,286047003.1,N
1504429355.4,286047004.8,N
1504429375.2,286047007.2,N
1504429395.1,286047008.6,N
1504429396.0,286047008.6,N
1504429415.8,286047007.7,N
1504429435.6,286047010.8,N
1504429455.5,286047006.8,N
1504429475.3,286047003.0,N
1504429495.1,286046999.9,N
1504429515.8,286047002.0,N
1504429535.7,286047001.8,N
1504429555.5,286047004.4,N
1504429575.3,286046998.8,N
1504429595.2,286047000.6,N
1504429615.0,286046998.8,N
1504429615.9,286046998.8,N
1504429635.7,286046999.2,N
1504429655.6,286047000.5,N
1504429675.4,286047002.6,N
1504429695.2,286047001.8,N
1504429715.1,286047000.4,N
1504429716.0,286047000.4,N
1504429735.8,286046996.6,N
1504429755.6,286046995.9,N
1504429775.5,286046995.4,N
1504429795.3,286046998.8,N
1504429815.1,286046998.2,N
1504429835.9,286046998.4,N
1504429855.7,286047001.4,N
1504429875.5,286047000.1,N
1504429895.4,286047002.1,N
1504429915.2,286047001.9,N
1504429935.0,286047005.5,N
1504429935.9,286047005.5,N
1504429955.8,286047009.2,N
1504429975.6,286047005.0,N
1504429995.4,286047003.2,N
1504430015.3,286047001.3,N
1504430035.1,286047005.9,N
1504430036.0,286047005.9,N
1504430055.8,286047004.4,N
1504430075.7,286047001.7,N
1504430095.5,286046999.6,N
1504430115.3,286046997.5,N
1504430135.2,286046997.3,N
1504430155.9,286046998.9,N
1504430175.7,286047003.3,N
1504430195.6,286047002.6,N
1504430215.4,286047001.4,N
1504430235.2,286047002.3,N
1504430255.0,286047000.6,N
1504430256.0,286047000.6,N
1504430275.8,286047004.3,N
1504430295.6,286047003.2,N
1504430315.4,286047003.3,N
1504430335.3,286047004.7,N
1504430355.1,286047005.1,N
1504430375.8,286047006.4,N
1504430395.7,286047005.2,N
1504430415.5,286047005.4,N
1504430435.3,286047007.2,N
1504430455.2,286047006.8,N
1504430475.9,286047008.6,P
1504430495.7,286047003.9,N
1504430515.6,286047003.3,N
1504430535.4,286047001.3,N
1504430555.2,286047000.2,N
1504430575.1,286046998.5,N
1504430576.0,286046998.5,N
1504430595.8,286046997.5,N
1504430615.6,286046999.5,N
1504430635.5,286046999.0,N
1504430655.3,286046997.3,N
1504430675.1,286046993.3,N
1504430695.9,286046997.0,N
1504430715.7,286046998.1,N
1504430735.5,286047000.0,N
1504430755.4,286047001.7,N
1504430775.2,286046999.8,N
1504430795.0,286047001.0,N
1504430795.9,286047001.0,N
1504430815.7,286047001.1,N
1504430835.6,286046998.7,N
1504430855.4,286046997.7,N
1504430875.2,286046997.7,N
1504430895.1,286046996.7,N
1504430896.0,286046996.7,N
1504430915.8,286046998.2,N
1504430935.6,286046997.6,N
1504430955.5,286046995.7,N
1504430975.3,286046995.6,N
1504430995.1,286046992.7,N
1504431015.9,286046993.9,N
1504431035.7,286046995.1,N
1504431055.5,286046995.1,N
1504431075.4,286046992.5,P
1504431095.2,286046996.7,N
1504431115.0,286047001.2,N
1504431115.9,286047001.2,N
1504431135.8,286047000.9,N
1504431155.6,286046996.6,N
1504431175.4,286047001.0,N
1504431195.3,286046997.1,N
1504431215.1,286046994.9,N
1504431216.0,286046994.9,N
1504431235.8,286046994.9,N
1504431255.7,286046992.2,N
1504431275.5,286046992.2,N
1504431295.3,286046993.4,N
1504431315.2,286046996.6,N
1504431335.9,286047000.6,N
1504431355.7,286046998.2,N
1504431375.5,286046999.4,N
1504431395.4,286046998.8,N
1504431415.2,286047002.1,N
1504431435.0,286047001.3,N
1504431435.9,286047001.3,N
1504431455.8,286047000.3,N
1504431475.6,286047004.1,N
1504431495.4,286047005.9,N
1504431515.3,286046999.9,N
1504431535.1,286047002.6,N
1504431555.8,286047001.8,N
1504431575.7,286047000.8,N
1504431595.5,286047001.0,N
1504431615.3,286046999.8,N
1504431635.2,286047000.5,N
1504431655.9,286047000.8,N
1504431675.7,286046999.2,N
1504431695.6,286046994.5,N
1504431715.4,286046992.4,N
1504431735.2,286046992.8,N
1504431755.1,286046989.6,N
1504431756.0,286046989.6,N
1504431775.8,286046988.1,N
1504431795.6,286046985.6,P
1504431815.5,286046987.6,N
1504431835.3,286046987.9,N
1504431855.1,286046987.7,N
1504431875.9,286046987.4,N
1504431895.7,286046989.0,N
1504431915.5,286046990.0,N
1504431935.3,286046990.7,N
1504431955.2,286046992.6,N
1504431975.0,286046994.6,N
1504431975.9,286046994.6,N
1504431995.8,286046987.6,P
1504432015.6,286046997.4,N
1504432035.4,286046996.3,N
1504432055.3,286046996.0,N
1504432075.1,286046998.8,N
1504432076.0,286046998.8,N
1504432095.8,286046999.7,N
1504432115.7,286047003.9,N
1504432135.5,286047005.9,N
1504432155.3,286047004.3,N
1504432175.1,286047001.5,N
1504432195.9,286047005.7,N
1504432215.7,286047003.8,N
1504432235.5,286047003.6,N
1504432255.4,286047001.3,N
1504432275.2,286047000.8,N
1504432295.0,286047000.6,N
1504432295.9,286047000.6,N
1504432315.8,286047002.0,N
1504432335.6,286047003.7,N
1504432355.4,286046999.9,N
1504432375.3,286046999.0,N
1504432395.1,286046999.5,N
1504432396.0,286046999.5,N
1504432415.8,286046999.5,N
1504432435.7,286046998.5,N
1504432455.5,286047003.7,N
1504432475.3,286047002.0,N
1504432495.2,286047003.5,N
1504432515.9,286047003.1,N
1504432535.7,286047002.3,N
1504432555.6,286047001.0,N
1504432575.4,286046999.7,N
1504432595.2,286047002.2,N
1504432615.0,286047000.7,N
1504432616.0,286047000.7,N
1504432635.8,286047001.1,N
1504432655.6,286047001.7,N
1504432675.4,286047003.8,N
1504432695.3,286047003.6,N
1504432715.1,286047004.3,N
1504432735.8,286047002.5,N
1504432755.7,286047001.9,N
1504432775.5,286047001.2,N
1504432795.3,286046999.9,N
